Regional Weather Roundup
Issued by NWS Albany, NY

Home | Current Version | Previous Version | Text Only | Print | Product List | Glossary On
Versions: 1 2 3 4 5 6 7 8 9 10 11 12 13 14 15 16 17 18 19 20 21 22 23 24 25 26 27 28 29 30 31 32 33 34 35 36 37 38 39 40 41 42 43 44 45 46 47 48 49 50
000
ASUS41 KALY 300910
RWRALY

NEW YORK STATE HOURLY WEATHER ROUNDUP
NATIONAL WEATHER SERVICE ALBANY NY
500 AM EDT THU JUL 30 2015

NOTE: "FAIR" INDICATES FEW OR NO CLOUDS BELOW 12,000 FEET WITH NO
SIGNIFICANT WEATHER AND/OR NO OBSTRUCTIONS TO VISIBILITY.

NYZ032-033-038>043-046>054-057>066-NYZ062>081-301000-
EAST


CITY           SKY/WX    TMP DP  RH WIND       PRES   REMARKS
ALBANY         MOCLDY    75  66  73 S6        29.86F
GLENS FALLS    CLEAR     66  63  90 CALM      29.86S
POUGHKEEPSIE   CLEAR     71  67  87 CALM      29.88F
MONTGOMERY     MOCLDY    71  69  93 CALM      29.90F FOG
WHITE PLAINS   CLEAR     76  72  87 CALM      29.91F
ISLIP          CLEAR     76  73  91 SW7       29.91S
NEW YORK CITY  PTCLDY    80  71  74 SW6       29.90F
CENTRAL PARK   PTCLDY    80  70  71 W8        29.93F
$$

NYZ005>009-017-018-044>046-055-056-301000-
CENTRAL


CITY           SKY/WX    TMP DP  RH WIND       PRES   REMARKS
FULTON         MOCLDY    75  68  78 S6        29.80F
SYRACUSE       MOCLDY    77  69  76 S6        29.80F
ROME           CLEAR     72  65  78 E8        29.84F
ELMIRA         PTCLDY    67  67 100 CALM      29.86F FOG
BINGHAMTON     PTCLDY    70  68  93 S6        29.91F
MONTICELLO     CLOUDY    66  66 100 CALM      29.96F
$$

NYZ026>034-041>043-301000-
NORTH


CITY           SKY/WX    TMP DP  RH WIND       PRES   REMARKS
WATERTOWN      MOCLDY    75  66  73 S3        29.78F
FORT DRUM      NOT AVBL
MASSENA        PTCLDY    67  62  84 S3        29.77F
SARANAC LAKE   CLEAR     56  55  97 CALM      29.87F
PLATTSBURGH    CLEAR     65  65 100 CALM      29.81F FOG
$$

NYZ001>004-010>016-019>021-301000-
WEST


CITY           SKY/WX    TMP DP  RH WIND       PRES   REMARKS
NIAGARA FALLS  CLOUDY    76  67  73 W9        29.81R
BUFFALO        LGT RAIN  75  69  81 SW6       29.83R
DUNKIRK        CLOUDY    71  68  90 S8        29.87S
JAMESTOWN      CLOUDY    68  64  88 NW12      29.92S
WELLSVILLE     MOCLDY    73  68  84 SW8       29.93S
ROCHESTER      CLOUDY    76  69  79 SW7       29.81S
PENN YAN       MOCLDY    75  69  81 SW9       29.85F
$$

             KEY
       WCI = WIND CHILL INDEX
       VSB = VISIBILITY
       HX  = HEAT INDEX
$$



USA.gov is the U.S. government's official web portal to all federal, state and local government web resources and services.